Tracking 18785 objects as of 20-August-2017
HD Live streaming from Space Station
objects crossing your sky now

SJ-7

Track SJ-7 now!
10-day predictions
SJ-7 is classified as:


NORAD ID: 28737
Int'l Code: 2005-024A
Perigee: 563.6 km
Apogee: 613.0 km
Inclination: 97.7 °
Period: 96.3 minutes
Semi major axis: 6959 km
RCS: 3.0015 m2 (large)
Launch date: July 5, 2005
Source: People's Republic of China (PRC)
Launch site: Jiuquan Satellite Launch Center, China (JSC)
Your satellite tracking list
Your tracking list is empty





NASA's NSSDC Master Catalog

Two Line Element Set (TLE):
1 28737U 05024A   17232.55856635  .00000106  00000-0  14715-4 0  9995
2 28737  97.6585 238.0120 0035475  98.0697 262.4555 14.95393150664575
Source of the keplerian elements: AFSPC